Regional Weather Roundup
Issued by NWS Memphis, TN

Home | Current Version | Previous Version | Text Only | Print | Product List | Glossary On
Versions: 1 2 3 4 5 6 7 8 9 10 11 12 13 14 15 16 17 18 19 20 21 22 23 24 25 26 27 28 29 30 31 32 33 34 35 36 37 38 39 40 41 42 43 44 45 46 47 48 49 50
000
ASUS44 KMEG 260010
RWRMEG
MEMPHIS CWA HOURLY WEATHER ROUNDUP
NATIONAL WEATHER SERVICE MEMPHIS TN
700 PM CDT FRI MAY 25 2018

...WEST TENNESSEE...

CITY           SKY/WX    TMP DP  RH WIND       PRES   REMARKS
MEMPHIS INTL   CLOUDY    79  73  82 W5        29.89R
6HR MIN TEMP:  78; 6HR MAX TEMP:  87; 6HR PCP:  0.01;

NWS MEMPHIS      N/A     73 N/A N/A MISG        N/A
JACKSON        PTSUNNY   77  71  82 NW10      29.91R
6HR MIN TEMP:  75; 6HR MAX TEMP:  81; 6HR PCP: TRACE;

COVINGTON      SUNNY     75  72  88 S3        29.89R
BOLIVAR        CLOUDY    72  68  88 SW7       29.91R
LEXINGTON      PTSUNNY   75  72  88 CALM      29.91R
SELMER         MOSUNNY   77  73  88 CALM      29.90R
UNION CITY     PTSUNNY   73  72  94 NE3       29.89F FOG
PARIS          SUNNY     75  72  88 CALM      29.90S
HUNTINGDON     PTSUNNY   75  72  88 CALM      29.90S


...EASTERN ARKANSAS...

CITY           SKY/WX    TMP DP  RH WIND       PRES   REMARKS
JONESBORO      FAIR      78  73  84 S9        29.86R
6HR MIN TEMP:  72; 6HR MAX TEMP:  89; 6HR PCP:  0.23;

WEST MEMPHIS   FAIR      77  73  87 S5        29.88R
6HR MIN TEMP:  74; 6HR MAX TEMP:  85; 6HR PCP:  0.02;

BATESVILLE     RAIN      70  68  93 SE8       29.84F
6HR MIN TEMP:  70; 6HR MAX TEMP:  86; 6HR PCP:  0.44;

NEWPORT        LGT RAIN  73  70  90 SW8       29.85F
6HR MIN TEMP:  73; 6HR MAX TEMP:  83; 6HR PCP: TRACE;

WALNUT RIDGE     N/A     79  72  79 S6        29.86R
6HR MIN TEMP:  71; 6HR MAX TEMP:  81; 6HR PCP:  0.16;

BLYTHEVILLE    FAIR      78  67  68 E7        29.88R
6HR MIN TEMP:  76; 6HR MAX TEMP:  87;

SEARCY         FAIR      83  72  69 E7        29.84F
6HR MIN TEMP:  79; 6HR MAX TEMP:  90;

STUTTGART      FAIR      80  71  74 S8        29.86S
6HR MIN TEMP:  76; 6HR MAX TEMP:  85; 6HR PCP:  0.01;

PINE BLUFF     FAIR      75  70  84 SE6       29.86F
6HR MIN TEMP:  74; 6HR MAX TEMP:  88; 6HR PCP:  0.07;



...NORTH MISSISSIPPI...

CITY           SKY/WX    TMP DP  RH WIND       PRES   REMARKS
TUPELO         PTSUNNY   85  65  51 CALM      29.89R
6HR MIN TEMP:  84; 6HR MAX TEMP:  85;

BATESVILLE       N/A    N/A N/A N/A MISG        N/A
OLIVE BRANCH   PTSUNNY   72  72 100 E6        29.90R
TUNICA           N/A     73  70  88 CALM      29.90R
CLARKSDALE     SUNNY     79  77  94 CALM      29.88S
CORINTH          N/A     79  72  78 CALM      29.89S
GREENWOOD      FAIR      80  72  76 S9        29.90R
6HR MIN TEMP:  75; 6HR MAX TEMP:  83; 6HR PCP:  0.01;

COLUMBUS       FAIR      79  74  84 SW7       29.89S
6HR MIN TEMP:  79; 6HR MAX TEMP:  87;

STARKVILLE     DRIZZLE   72  70  94 W3        29.93R
GOLDEN TRIANGL FAIR      76  70  82 W7        29.91F
6HR MIN TEMP:  76; 6HR MAX TEMP:  87; 6HR PCP: TRACE;



...SOUTHEAST MISSOURI...

CITY           SKY/WX    TMP DP  RH WIND       PRES   REMARKS
KENNETT        FAIR      77  73  88 SE6       29.85R FOG
MALDEN         FAIR      79  68  69 S7        29.88R
WEST PLAINS    MOSUNNY   74  67  78 VRB3      29.87F
6HR MIN TEMP:  69; 6HR MAX TEMP:  83;

POPLAR BLUFF   FAIR      79  71  76 S6        29.86R
6HR MIN TEMP:  73; 6HR MAX TEMP:  86; 6HR PCP:  0.18;

CAPE GIRARDEAU FAIR      74  69  85 SE6       29.85F
6HR MIN TEMP:  70; 6HR MAX TEMP:  87; 6HR PCP:  0.56;



...NORTHWEST ALABAMA...

CITY           SKY/WX    TMP DP  RH WIND       PRES   REMARKS
MUSCLE SHOALS  CLOUDY    73  69  87 SE22G29   29.95R
6HR MIN TEMP:  73; 6HR MAX TEMP:  92; 6HR PCP:  0.32;



...MIDDLE TENNESSEE...

CITY           SKY/WX    TMP DP  RH WIND       PRES   REMARKS
NASHVILLE      CLOUDY    79  66  64 CALM      29.91R
6HR MIN TEMP:  77; 6HR MAX TEMP:  91;

CLARKSVILLE    CLOUDY    75  70  84 W6        29.90S
6HR MIN TEMP:  74; 6HR MAX TEMP:  88; 6HR PCP:  0.01;

DICKSON        CLEAR     73  68  83 CALM      29.91S
COLUMBIA       CLEAR     73  73 100 S6        29.90R
LEWISBURG      CLEAR     75  66  73 CALM      29.92R


...WESTERN KENTUCKY...

CITY           SKY/WX    TMP DP  RH WIND       PRES   REMARKS
PADUCAH        LGT RAIN  71  67  87 S7        29.85F
6HR MIN TEMP:  70; 6HR MAX TEMP:  81; 6HR PCP:  0.10;

FORT CAMPBELL  FAIR      77  71  82 SW7       29.89F
6HR MIN TEMP:  76; 6HR MAX TEMP:  88;



...CENTRAL ARKANSAS...

CITY           SKY/WX    TMP DP  RH WIND       PRES   REMARKS
LITTLE ROCK    PTSUNNY   79  68  69 SE12      29.84F
6HR MIN TEMP:  71; 6HR MAX TEMP:  86; 6HR PCP: TRACE;



SKY/WX REPORTED AS FAIR MEANS FEW OR NO CLOUDS BELOW
12 THOUSAND FEET.





USA.gov is the U.S. government's official web portal to all federal, state and local government web resources and services.